GW0118 Weather Reports


Display with metric or nautical units.
time (UTC)temp
F
wind
direction
speed
MPH
gust
MPH
rain 1hr
in
rain 24hr
in
rain mn
in
humidity
%
barometer
mb
20260507224559 44 0 0.0 2.0 0.00 0.07 0.00 89 1014.0
20260507221600 45 0 0.0 1.0 0.00 0.07 0.00 88 1013.7
20260507220059 45 0 0.0 1.0 0.00 0.07 0.00 87 1013.8
20260507214603 45 120 0.0 1.0 0.00 0.07 0.07 87 1013.7
20260507213101 46 0 0.0 0.0 0.00 0.07 0.07 87 1013.5
20260507211604 46 184 0.0 1.0 0.00 0.07 0.07 86 1013.5
20260507210114 46 129 1.0 5.0 0.00 0.07 0.07 84 1013.5
20260507204600 47 0 1.0 6.0 0.00 0.07 0.07 84 1013.4
20260507203057 48 119 1.0 6.0 0.00 0.07 0.07 83 1013.1
20260507201600 48 116 2.0 5.0 0.00 0.07 0.07 84 1013.0
20260507200105 48 76 1.0 3.0 0.00 0.07 0.07 82 1012.7
20260507194601 49 63 0.0 7.0 0.00 0.07 0.07 80 1012.5
20260507193059 50 67 3.0 5.0 0.00 0.07 0.07 75 1012.4
20260507191603 51 110 0.0 2.0 0.00 0.07 0.07 73 1012.3
20260507190113 54 43 0.0 1.0 0.00 0.07 0.07 68 1012.2
20260507184558 55 270 0.0 3.0 0.00 0.07 0.07 67 1012.2
20260507183115 55 265 3.0 6.0 0.00 0.07 0.07 67 1012.3
20260507181606 55 267 2.0 4.0 0.00 0.07 0.07 66 1012.1
20260507180104 55 258 3.0 7.0 0.00 0.07 0.07 67 1012.1
20260507174605 55 229 2.0 5.0 0.00 0.07 0.07 68 1012.0
20260507173120 56 301 1.0 4.0 0.00 0.07 0.07 67 1012.1
20260507171600 55 278 1.0 5.0 0.00 0.07 0.07 70 1012.0
20260507170059 54 253 4.0 7.0 0.00 0.07 0.07 68 1012.1
20260507164631 54 248 4.0 9.0 0.00 0.07 0.07 70 1012.1
20260507163101 54 219 3.0 6.0 0.00 0.07 0.07 73 1012.1
20260507161605 54 260 1.0 4.0 0.00 0.07 0.07 69 1012.0
20260507154601 52 245 0.0 4.0 0.00 0.07 0.07 76 1011.7
20260507153059 50 255 1.0 6.0 0.03 0.07 0.07 80 1011.7
20260507151600 49 262 2.0 5.0 0.04 0.07 0.07 81 1011.8
20260507150059 48 243 1.0 4.0 0.04 0.07 0.07 86 1012.1
20260507144602 47 232 5.0 14.0 0.05 0.07 0.07 87 1012.4
20260507143119 48 248 8.0 22.0 0.02 0.03 0.03 84 1012.5
20260507141604 51 216 6.0 10.0 0.00 0.02 0.02 82 1012.4
20260507134559 51 266 3.0 7.0 0.00 0.01 0.01 81 1012.5
20260507133100 51 266 4.0 11.0 0.00 0.01 0.01 82 1012.3
20260507131606 51 247 7.0 12.0 0.01 0.01 0.01 81 1012.5
20260507130059 51 321 3.0 8.0 0.01 0.01 0.01 82 1012.4
20260507124606 50 237 4.0 11.0 0.01 0.01 0.01 82 1012.4
20260507123100 49 260 4.0 14.0 0.01 0.01 0.01 81 1012.3
20260507121558 51 291 11.0 19.0 0.00 0.00 0.00 77 1012.4
20260507120100 54 238 4.0 11.0 0.00 0.00 0.00 73 1012.2
20260507114611 56 237 3.0 9.0 0.00 0.00 0.00 66 1012.0
20260507113129 58 101 3.0 13.0 0.00 0.00 0.00 60 1012.1
20260507111600 58 198 3.0 10.0 0.00 0.00 0.00 62 1012.4
20260507110059 55 0 2.0 6.0 0.00 0.00 0.00 67 1012.6
20260507104558 55 268 2.0 3.0 0.00 0.00 0.00 68 1012.5
20260507103059 54 314 2.0 8.0 0.00 0.00 0.00 70 1012.8
20260507101603 53 63 2.0 8.0 0.00 0.00 0.00 70 1012.8
20260507100115 52 23 3.0 8.0 0.00 0.00 0.00 74 1012.9
20260507094607 51 54 2.0 5.0 0.00 0.00 0.00 75 1013.0
20260507093057 50 19 1.0 6.0 0.00 0.00 0.00 77 1013.0
20260507091635 50 77 3.0 6.0 0.00 0.00 0.00 77 1013.1
20260507090058 50 103 2.0 4.0 0.00 0.00 0.00 78 1012.8
20260507084610 50 63 2.0 4.0 0.00 0.00 0.00 82 1012.8
20260507083100 49 111 1.0 4.0 0.00 0.00 0.00 82 1012.7
20260507081602 49 86 2.0 4.0 0.00 0.00 0.00 80 1012.7
20260507080100 50 60 1.0 2.0 0.00 0.00 0.00 77 1012.7
20260507074604 49 0 0.0 4.0 0.00 0.00 0.00 78 1012.6
20260507073103 49 52 3.0 7.0 0.00 0.00 0.00 78 1012.4
20260507071559 49 13 1.0 9.0 0.00 0.00 0.00 80 1012.3
20260507070106 48 54 4.0 8.0 0.00 0.00 0.00 82 1012.3
20260507064559 46 61 4.0 7.0 0.00 0.00 0.00 86 1012.3
20260507063059 44 79 2.0 4.0 0.00 0.00 0.00 88 1012.1
20260507061600 44 75 2.0 4.0 0.00 0.00 0.00 89 1012.1
20260507060103 43 82 0.0 4.0 0.00 0.00 0.00 89 1012.1
20260507054559 43 65 2.0 5.0 0.00 0.00 0.00 89 1012.1
20260507053058 43 113 1.0 3.0 0.00 0.00 0.00 89 1012.1
20260507051602 43 0 0.0 2.0 0.00 0.00 0.00 89 1012.0
20260507050059 42 69 0.0 2.0 0.00 0.00 0.00 89 1012.1
20260507044616 42 0 0.0 1.0 0.00 0.00 0.00 89 1012.1
20260507041609 42 0 0.0 1.0 0.00 0.00 0.00 88 1012.4
20260507040059 42 0 0.0 1.0 0.00 0.00 0.00 89 1012.4
20260507034558 42 108 0.0 1.0 0.00 0.00 0.00 89 1012.4
20260507033058 43 118 0.0 2.0 0.00 0.00 0.00 87 1012.4
20260507031600 43 100 0.0 2.0 0.00 0.00 0.00 87 1012.5
20260507030101 43 101 2.0 7.0 0.00 0.00 0.00 87 1012.4
20260507024600 43 98 4.0 7.0 0.00 0.00 0.00 87 1012.4
20260507023109 43 78 4.0 9.0 0.00 0.00 0.00 87 1012.4
20260507021559 43 114 5.0 9.0 0.00 0.00 0.00 87 1012.4
20260507020104 44 67 5.0 8.0 0.00 0.00 0.00 86 1012.4
20260507014559 44 72 5.0 10.0 0.00 0.00 0.00 86 1012.4
20260507013100 44 48 4.0 9.0 0.00 0.00 0.00 85 1012.5
20260507011601 44 79 6.0 12.0 0.00 0.00 0.00 85 1012.6
20260507010059 44 126 5.0 8.0 0.00 0.00 0.00 85 1012.7
20260507004607 45 60 4.0 9.0 0.00 0.00 0.00 84 1012.8
20260507003116 45 47 4.0 8.0 0.00 0.00 0.00 83 1012.9
20260507001614 45 66 4.0 10.0 0.00 0.00 0.00 82 1012.9
20260507000057 45 53 7.0 12.0 0.00 0.00 0.00 81 1012.7
20260506234600 46 61 7.0 12.0 0.00 0.00 0.00 81 1012.7
20260506233058 46 34 4.0 12.0 0.00 0.00 0.00 80 1012.8
20260506231607 46 87 6.0 12.0 0.00 0.00 0.00 80 1012.7
20260506230114 46 117 5.0 12.0 0.00 0.00 0.00 80 1012.7